Showing default

M1, 43779

Orbit data source: Space-Track

M1, 43779 is a payload satellite owned by RAAF (AU) in SSO that was launched on Mon, 03 Dec 2018 UTC via an FALCON 9 launch vehicle from the Air Force Western Test Range (AFWTR). Payload-class satellites include a variety of spacecraft equipped with specific instruments for various scientific and technological missions. These include communications satellites like Starlink; space stations such as the ISS; scientific satellites like the Hubble; Earth observation satellites from companies like Planet Labs, Umbra, and HawkEye 360; GPS; miniature CubeSats for education and research; and military/defense satellites.

Loading next visibility...
Identifier
43779, 2018-099X
Orbit
SSO
Country
Flag of AUAU / AUS
Related business
Manufacturer
U. NSW
Mission
Non-operational Defense Imaging
Bus & Motor
CUBESAT 3U, Unknown motor
Mass
5 kg wet, 5 kg dry
Launch date (UTC)
2018-12-03 (7 years ago)
Launch vehicle
FALCON 9
Launch site
Air Force Western Test Range (AFWTR)
Object type
Payload
Rocket body
Debris
Shape & HBR
Box + 1 Pan, 0.1 m
Radar Cross Section
0.035 m², Small (<0.1 m²)

Expand to show TLE details & history
Last TLE update: 23 hours ago

TLE from 23 hours ago
0 M1
1 43779U 18099X   25310.58954421  .00004809  00000-0  33283-3 0  9999
2 43779  97.4729 355.5859 0015253  77.6959 282.5975 15.06046933378619
Epoch: 2025-11-06T14:08Z
TLE epoch observation values (Epoch: 2025-11-06T14:08:56.619Z)
Latitude
-0.00005°
Longitude
97.30431°
Altitude
549.074 km
Speed
7.589 km/s
True Right ascension
23h 42m 20s
True Declination
0° 00' 00"
Sunlit
Object was in full shadow at epoch
Visualization orbit readout
Latitude
Unknown
Longitude
Unknown
Altitude
Unknown
Speed
Unknown
Apparent Right ascension
Unknown
Apparent Declination
Unknown
Sunlit
N/A
Visualization observer readout
Local Sidereal Time
08:55:54
Azimuth
Unknown
Elevation
Unknown
Doppler factor
Unknown
Orbital elements
Apogee altitude
555.841 km
Perigee altitude
534.721 km
Semi-major axis
6,923.418 km
Eccentricity
0.00153
Inclination
97.4729°
RAAN
355.5859°
Arg. of periapsis
77.6959°
True anomaly
282.42685°
Mean anomaly
282.5975°
Eccentric anomaly
282.51218°
Mean motion
3.76758 °/min
Orbital period
95.55 mins
BSTAR
0.00033283
Loading maneuver chart data...
Computing Atmospheric mass density...
Loading historical data...
Loading historical data...
Loading historical data...
Loading historical data...
Loading historical data...
Loading historical data...
Loading historical data...

Documentation

Showing up to 5 results
|